Temp
70 71 68 67 57 51 46 50 55 56 57 58 61 61 58 56 56 50 63 68 69 69 71 72 74 75 75 75 75 76 76 76 76 76 76 76 76 77 77 76 76 76 77 76 76 76 76 75 75
70 75 69 58 50 44 47 52 55 57 61 60 61 58 57 53 61 60 62 69 70 70 70 70 72 75 75 75 75 75 75 76 76 76 77 77 76 76 77 76 75 76 77 76 76 75 75 75 74
73 72 64 55 47 46 46 52 56 58 59 58 58 59 57 56 59 62 66 69 70 69 70 70 72 74 75 75 74 75 75 75 76 76 76 75 75 76 75 75 75 75 75 76 75 75 75 74 74
69 67 61 52 47 52 52 57 59 59 59 61 58 56 59 65 65 66 69 69 68 67 69 70 72 74 74 74 74 74 75 75 75 75 76 75 74 74 74 74 74 74 74 74 75 74 74 74 73
64 60 52 47 48 52 54 58 57 60 57 57 57 52 56 64 67 68 68 69 66 66 67 69 71 73 73 74 74 74 74 74 74 74 74 74 73 73 74 74 74 73 73 73 74 73 73 73 73
63 57 48 45 50 54 55 58 59 56 57 56 56 54 56 63 65 66 68 66 67 66 67 68 68 70 71 72 73 73 73 73 73 73 73 73 73 73 73 73 73 73 73 73 73 72 72 72 72
60 53 47 47 51 53 58 61 57 58 57 56 60 53 54 60 65 66 66 65 66 66 66 66 67 68 68 69 70 71 72 72 72 72 71 70 70 71 71 71 72 73 72 72 71 71 71 71 70
61 57 46 47 52 52 60 60 61 59 56 60 61 53 54 61 65 65 65 64 65 65 65 64 65 66 66 66 66 68 69 69 69 68 67 66 67 67 68 67 70 71 71 70 70 70 70 70 69
63 53 45 50 53 54 58 60 59 59 60 57 59 59 61 65 65 64 64 65 66 66 64 64 64 64 65 65 64 65 66 66 66 65 63 62 62 63 64 64 67 69 69 69 69 69 67 65 64
58 52 52 57 57 55 58 59 61 58 56 54 54 59 64 64 64 63 64 63 65 65 64 63 63 63 64 66 63 64 67 64 64 63 62 62 61 62 63 62 64 66 66 67 68 67 64 61 58
55 53 58 56 61 60 59 59 58 57 53 58 58 58 62 62 63 62 64 66 65 66 65 63 63 63 63 63 62 62 65 66 63 62 62 61 61 60 60 59 59 59 59 59 59 58 58 58 58
55 61 61 60 59 57 58 61 58 58 61 64 62 64 63 63 62 62 62 64 63 63 64 64 63 63 63 62 62 62 62 64 61 62 62 60 59 58 58 58 58 57 56 56 55 55 56 57 58
56 57 60 59 58 58 60 57 58 58 56 58 61 63 64 64 63 63 64 64 63 63 64 64 64 63 63 62 61 61 61 63 62 62 62 60 59 58 58 57 57 56 56 55 54 55 55 56 57
59 60 58 58 58 58 57 55 58 60 57 58 60 60 63 64 64 59 61 62 63 64 64 65 64 64 64 63 62 62 61 62 62 62 62 62 60 59 58 57 57 56 56 56 56 55 55 54 55
58 55 56 53 55 56 59 51 55 57 57 56 58 59 59 62 62 63 64 64 64 65 65 65 65 65 64 64 63 63 62 63 61 63 63 62 61 60 59 58 57 57 57 56 55 55 54 54 54
53 52 47 50 54 53 56 48 58 56 57 53 54 55 56 59 61 63 62 65 65 66 65 65 67 65 65 65 65 65 65 64 63 63 64 66 64 62 60 58 57 58 56 55 54 54 53 53 52
47 40 42 48 53 50 52 49 55 58 56 54 52 54 56 58 58 60 61 63 64 66 65 65 66 65 65 65 65 65 68 67 67 67 66 66 65 64 63 59 58 58 56 54 54 53 53 52 52
41 40 43 45 49 48 47 50 52 53 53 56 55 54 54 57 61 64 62 62 64 65 66 66 66 66 65 64 63 64 66 66 66 66 66 66 65 65 64 62 61 59 56 54 53 54 54 55 52
49 47 43 48 51 47 47 51 55 55 50 52 54 53 52 57 62 60 62 63 61 61 63 65 65 65 64 61 62 60 61 64 65 65 65 65 65 64 63 63 62 61 59 59 58 57 57 54 52
48 46 44 46 48 48 44 48 52 50 52 55 55 54 54 55 57 60 59 59 59 61 63 64 65 64 64 65 65 62 61 61 63 65 65 65 64 64 63 62 62 61 59 58 57 56 53 54 54
45 44 42 45 45 45 42 46 47 50 52 52 54 55 54 57 56 58 57 57 56 57 59 62 64 63 65 65 62 60 60 61 62 61 63 64 64 64 63 63 62 61 60 59 58 56 55 54 51
43 48 49 44 43 38 43 38 43 47 50 50 56 52 56 54 56 56 56 54 53 53 54 57 59 60 63 63 62 62 62 61 60 61 61 62 64 64 63 63 62 61 60 59 59 56 56 55 53
45 50 47 43 41 38 37 34 42 40 45 49 54 54 59 54 55 54 52 52 50 50 51 53 55 55 59 62 63 62 59 59 59 61 62 63 62 62 62 62 61 61 60 59 58 56 55 54 54
51 47 45 41 40 32 38 37 37 40 47 50 50 54 52 51 51 50 48 49 48 48 50 50 52 53 53 56 60 61 61 60 60 61 61 61 61 61 61 60 60 60 59 58 58 57 56 55 55
47 43 30 30 30 29 31 33 47 47 47 49 52 52 48 48 46 46 46 47 47 48 49 50 50 51 51 52 55 60 59 60 60 62 61 60 60 59 60 59 59 58 58 58 57 56 55 54 53
42 41 31 23 24 30 32 31 41 49 46 49 50 47 45 44 45 46 46 46 46 46 48 49 49 49 50 51 51 55 57 59 58 58 58 59 59 58 58 58 58 58 58 57 57 55 54 54 52
40 40 43 31 22 28 33 36 46 46 48 48 47 45 45 44 44 45 45 45 45 46 47 48 48 48 49 49 50 51 54 55 55 54 55 55 55 53 55 54 53 53 54 54 54 52 51 51 50
43 48 38 35 23 22 31 31 37 43 49 48 45 44 44 44 43 43 43 43 44 45 46 47 48 47 47 47 48 48 49 51 52 54 51 51 52 52 51 51 50 49 49 49 49 47 46 43 42
38 38 38 40 33 27 24 34 43 50 48 47 46 46 45 44 43 42 42 43 43 43 44 44 45 45 45 45 45 46 46 47 47 49 49 48 48 48 47 46 46 45 44 43 41 40 40 39 38
38 42 45 37 32 32 32 39 45 46 48 47 47 47 45 43 42 42 42 41 42 42 42 42 43 43 43 43 43 43 43 43 43 43 43 45 44 44 43 42 41 39 39 39 38 37 37 36 36
MSLP
1013.58 1013.49 1013.48 1014.23 1016.11 1017.23 1017.24 1017.01 1016.42 1016.42 1016.61 1016.81 1017.06 1017.59 1018.53 1019.18 1019.72 1020.63 1019.89 1019.76 1019.75 1020.22 1020.56 1020.89 1020.95 1020.93 1021.15 1021.39 1021.42 1021.39 1021.49 1021.49 1021.48 1021.60 1021.64 1021.65 1021.60 1021.41 1021.36 1021.46 1021.39 1021.36 1021.49 1021.76 1021.87 1021.91 1021.99 1022.03 1022.09
1013.70 1013.52 1014.00 1015.49 1017.00 1017.77 1017.65 1016.90 1016.60 1016.50 1016.62 1016.88 1017.09 1017.93 1018.46 1019.37 1019.44 1019.90 1019.97 1020.00 1019.93 1020.31 1020.65 1020.87 1021.17 1021.22 1021.40 1021.63 1021.76 1021.82 1021.94 1021.96 1021.92 1021.96 1022.04 1022.01 1022.12 1022.11 1021.97 1021.89 1021.89 1021.84 1021.91 1022.21 1022.34 1022.39 1022.38 1022.43 1022.54
1013.63 1013.86 1015.29 1016.48 1017.79 1017.88 1017.45 1016.83 1016.63 1016.59 1016.74 1016.83 1017.54 1018.13 1018.68 1019.28 1019.51 1019.72 1019.57 1019.87 1020.12 1020.50 1020.75 1020.87 1021.23 1021.44 1021.61 1021.87 1022.10 1022.22 1022.33 1022.44 1022.44 1022.45 1022.53 1022.62 1022.65 1022.60 1022.63 1022.64 1022.56 1022.49 1022.49 1022.61 1022.78 1022.85 1022.80 1022.86 1023.01
1014.07 1014.90 1016.58 1017.09 1017.68 1017.27 1017.01 1016.64 1016.60 1016.68 1016.92 1016.82 1017.49 1018.65 1018.88 1018.86 1019.29 1019.69 1019.97 1020.11 1020.57 1020.90 1020.93 1021.03 1021.12 1021.56 1021.79 1021.99 1022.25 1022.44 1022.59 1022.76 1022.86 1022.87 1022.96 1023.11 1023.20 1023.21 1023.21 1023.19 1023.20 1023.24 1023.25 1023.24 1023.25 1023.39 1023.33 1023.32 1023.42
1014.98 1016.25 1017.29 1017.74 1017.55 1016.96 1016.59 1016.38 1016.59 1016.53 1016.88 1017.35 1017.65 1019.03 1019.25 1019.37 1019.41 1019.82 1020.31 1020.51 1020.93 1021.31 1021.29 1021.36 1021.33 1021.66 1022.01 1022.23 1022.46 1022.66 1022.81 1022.97 1023.10 1023.19 1023.28 1023.37 1023.52 1023.58 1023.61 1023.66 1023.69 1023.73 1023.76 1023.77 1023.73 1023.83 1023.85 1023.79 1023.87
1016.08 1017.11 1017.91 1018.10 1017.49 1016.76 1016.33 1016.35 1016.49 1016.56 1016.99 1017.66 1018.21 1019.06 1019.60 1019.57 1019.81 1020.17 1020.56 1020.81 1021.01 1021.33 1021.59 1021.59 1021.62 1021.84 1022.11 1022.33 1022.61 1022.87 1023.06 1023.25 1023.38 1023.49 1023.56 1023.61 1023.69 1023.81 1023.92 1023.98 1024.04 1024.11 1024.12 1024.14 1024.20 1024.31 1024.34 1024.31 1024.29
1016.47 1017.50 1018.04 1017.95 1017.44 1016.72 1016.24 1016.29 1016.59 1016.77 1017.03 1017.43 1017.94 1019.40 1019.87 1019.94 1020.18 1020.21 1020.70 1021.12 1021.24 1021.66 1021.76 1021.90 1022.06 1022.12 1022.37 1022.59 1022.83 1023.07 1023.29 1023.47 1023.62 1023.74 1023.85 1023.99 1024.03 1024.13 1024.23 1024.29 1024.35 1024.39 1024.47 1024.57 1024.67 1024.71 1024.69 1024.72 1024.78
1016.70 1017.54 1018.10 1017.75 1017.40 1016.64 1016.03 1016.32 1016.29 1016.75 1017.21 1017.37 1017.51 1018.85 1019.72 1019.58 1020.17 1020.56 1021.10 1021.49 1021.71 1021.95 1022.10 1022.27 1022.50 1022.56 1022.58 1022.77 1022.95 1023.25 1023.51 1023.71 1023.88 1024.06 1024.24 1024.36 1024.47 1024.53 1024.58 1024.64 1024.65 1024.67 1024.77 1024.93 1025.01 1025.05 1025.02 1025.06 1025.11
1016.45 1017.51 1017.87 1017.52 1017.20 1016.43 1016.16 1016.27 1016.38 1016.58 1017.09 1017.52 1017.57 1017.96 1018.17 1019.01 1020.17 1020.89 1021.36 1021.88 1022.09 1022.35 1022.40 1022.36 1022.57 1022.79 1022.94 1023.12 1023.22 1023.31 1023.57 1023.87 1024.14 1024.30 1024.43 1024.57 1024.78 1024.88 1024.94 1025.01 1025.07 1025.13 1025.14 1025.20 1025.31 1025.41 1025.49 1025.51 1025.51
1016.54 1016.99 1017.08 1016.62 1016.38 1016.26 1016.18 1016.16 1016.41 1016.86 1017.35 1017.72 1017.91 1018.08 1018.38 1019.23 1020.03 1020.67 1021.09 1021.52 1021.91 1022.29 1022.68 1022.55 1022.69 1022.93 1023.15 1023.27 1023.57 1023.61 1023.79 1024.03 1024.33 1024.56 1024.74 1024.88 1025.01 1025.07 1025.11 1025.23 1025.30 1025.42 1025.54 1025.58 1025.57 1025.62 1025.77 1025.83 1025.90
1016.37 1016.71 1016.36 1016.23 1015.96 1016.04 1016.28 1016.29 1016.35 1016.83 1017.49 1017.26 1017.61 1018.25 1018.70 1019.37 1020.01 1020.31 1020.81 1021.17 1021.50 1021.92 1022.46 1022.48 1022.63 1022.93 1023.14 1023.32 1023.64 1023.92 1024.01 1024.11 1024.30 1024.58 1024.81 1025.04 1025.25 1025.38 1025.46 1025.62 1025.76 1025.84 1025.87 1025.93 1025.93 1026.01 1026.09 1026.15 1026.16
1016.32 1016.39 1016.24 1015.93 1015.77 1015.92 1016.06 1015.83 1016.30 1016.57 1016.37 1016.22 1016.94 1017.20 1018.21 1019.14 1019.69 1020.06 1020.53 1020.92 1021.41 1021.93 1022.13 1022.54 1022.50 1022.90 1023.18 1023.41 1023.63 1023.87 1024.14 1024.30 1024.49 1024.55 1024.71 1025.01 1025.30 1025.55 1025.68 1025.82 1025.93 1026.05 1026.21 1026.31 1026.35 1026.37 1026.29 1026.31 1026.29
1016.15 1016.19 1016.06 1015.68 1015.57 1015.58 1015.87 1015.96 1016.04 1016.37 1016.32 1016.60 1017.22 1018.04 1018.17 1018.71 1019.31 1019.89 1020.22 1020.80 1021.16 1021.37 1021.78 1022.18 1022.38 1022.64 1022.97 1023.38 1023.66 1023.89 1024.05 1024.15 1024.37 1024.66 1024.79 1025.01 1025.32 1025.53 1025.71 1025.86 1025.97 1026.06 1026.11 1026.26 1026.41 1026.49 1026.47 1026.39 1026.32
1015.99 1016.04 1016.19 1015.99 1015.55 1015.74 1016.05 1016.14 1016.37 1016.21 1016.65 1017.22 1017.56 1018.21 1018.29 1018.45 1018.75 1019.67 1019.99 1020.36 1020.78 1021.03 1021.27 1021.79 1022.12 1022.29 1022.78 1023.10 1023.45 1023.72 1024.04 1024.26 1024.48 1024.61 1024.80 1024.95 1025.20 1025.38 1025.56 1025.76 1025.86 1026.00 1026.10 1026.23 1026.36 1026.45 1026.51 1026.57 1026.57
1016.44 1016.44 1016.42 1015.97 1016.06 1016.12 1016.12 1016.55 1016.58 1016.54 1016.73 1017.49 1017.89 1018.30 1018.64 1018.56 1018.82 1018.84 1019.13 1019.63 1020.02 1020.48 1020.91 1021.34 1021.77 1021.99 1022.30 1022.70 1023.07 1023.43 1023.71 1024.06 1024.34 1024.49 1024.59 1024.83 1025.13 1025.34 1025.46 1025.67 1025.83 1025.88 1026.04 1026.18 1026.38 1026.50 1026.58 1026.65 1026.65
1017.06 1016.86 1016.98 1016.40 1016.71 1016.45 1016.46 1016.61 1016.34 1016.85 1017.15 1017.60 1018.10 1018.33 1018.61 1018.74 1018.42 1018.47 1018.78 1019.27 1019.55 1020.02 1020.50 1020.90 1021.20 1021.69 1022.01 1022.29 1022.61 1022.87 1023.13 1023.56 1023.90 1024.14 1024.24 1024.34 1024.55 1024.86 1025.22 1025.47 1025.65 1025.70 1025.90 1026.13 1026.36 1026.48 1026.68 1026.77 1026.76
1018.12 1017.46 1017.32 1016.95 1017.01 1016.97 1016.78 1016.90 1016.25 1016.79 1017.54 1017.95 1017.95 1018.33 1018.33 1018.54 1018.39 1018.31 1018.36 1018.77 1019.28 1019.43 1019.84 1020.45 1020.95 1021.28 1021.63 1021.92 1022.17 1022.37 1022.51 1023.04 1023.38 1023.62 1023.91 1024.10 1024.26 1024.51 1024.80 1025.17 1025.41 1025.66 1025.98 1026.13 1026.25 1026.46 1026.53 1026.52 1026.58
1018.01 1018.28 1017.55 1017.10 1017.32 1017.48 1017.26 1016.74 1016.66 1016.93 1017.53 1017.96 1018.10 1018.19 1018.16 1018.21 1017.58 1017.52 1017.81 1018.24 1018.61 1018.97 1019.30 1019.68 1020.31 1020.76 1021.07 1021.64 1021.99 1022.15 1022.16 1022.52 1022.96 1023.24 1023.49 1023.78 1024.03 1024.32 1024.61 1024.90 1025.10 1025.47 1025.90 1026.21 1026.37 1026.47 1026.54 1026.58 1026.66
1018.01 1018.12 1017.75 1017.21 1017.03 1017.84 1017.60 1017.00 1016.65 1016.94 1017.68 1017.88 1018.10 1018.40 1018.35 1017.94 1017.10 1017.49 1017.44 1017.79 1018.38 1018.67 1019.07 1019.30 1019.83 1020.36 1020.84 1021.44 1022.05 1022.34 1022.38 1022.53 1022.68 1022.97 1023.16 1023.45 1023.69 1023.99 1024.30 1024.66 1024.86 1025.23 1025.50 1025.55 1025.73 1026.11 1026.27 1026.42 1026.73
1018.24 1018.04 1017.94 1017.62 1017.30 1017.88 1017.77 1017.50 1017.00 1017.29 1017.18 1017.07 1017.25 1017.94 1017.89 1017.63 1017.48 1017.35 1017.43 1017.61 1017.93 1018.30 1018.29 1018.91 1019.28 1019.80 1020.33 1020.76 1021.25 1021.66 1021.93 1022.29 1022.23 1022.48 1022.81 1023.06 1023.25 1023.50 1023.75 1024.05 1024.47 1024.81 1025.26 1025.37 1025.61 1026.01 1026.39 1026.51 1026.63
1018.27 1018.20 1017.90 1018.14 1018.00 1017.99 1018.31 1018.21 1017.51 1016.90 1016.78 1016.77 1016.97 1017.06 1017.53 1017.45 1017.41 1017.33 1017.37 1017.63 1017.75 1018.19 1018.21 1018.40 1018.75 1019.19 1019.60 1020.12 1020.79 1021.43 1021.71 1021.98 1022.20 1022.25 1022.32 1022.48 1022.76 1023.06 1023.33 1023.53 1023.81 1024.15 1024.49 1024.91 1025.20 1025.62 1026.06 1026.22 1026.35
1017.97 1017.99 1017.90 1018.33 1018.46 1018.52 1018.63 1017.86 1017.49 1016.81 1016.59 1016.47 1016.30 1016.48 1016.55 1016.89 1017.02 1017.35 1017.42 1017.64 1017.95 1018.14 1018.24 1018.43 1018.71 1019.12 1019.45 1019.79 1020.41 1020.80 1021.23 1021.51 1021.74 1021.77 1021.85 1022.00 1022.05 1022.44 1022.83 1023.03 1023.23 1023.58 1024.09 1024.40 1024.45 1024.79 1025.30 1025.84 1026.21
1017.68 1018.05 1018.42 1018.59 1018.87 1019.10 1019.27 1019.30 1016.61 1016.88 1016.62 1016.08 1015.70 1015.86 1015.66 1016.05 1016.49 1017.30 1017.41 1017.56 1017.98 1018.15 1018.38 1018.49 1018.74 1019.19 1019.51 1019.55 1019.98 1020.55 1020.98 1021.13 1021.28 1021.63 1021.80 1021.87 1021.80 1021.93 1022.27 1022.71 1022.98 1023.18 1023.49 1023.83 1024.18 1024.65 1025.03 1025.31 1025.57
1017.81 1018.38 1019.04 1019.32 1019.69 1019.98 1018.86 1019.15 1017.23 1016.62 1015.80 1015.41 1014.81 1014.75 1015.13 1015.94 1016.28 1017.18 1017.60 1017.85 1018.28 1018.35 1018.46 1019.01 1018.94 1019.24 1019.54 1019.69 1019.60 1019.80 1020.33 1020.77 1021.09 1021.32 1021.67 1021.75 1021.77 1021.75 1021.93 1022.29 1022.71 1022.92 1023.31 1023.59 1023.85 1024.08 1024.48 1024.84 1025.23
1017.60 1018.85 1019.85 1020.57 1020.59 1019.81 1019.14 1019.25 1016.63 1015.41 1015.03 1014.96 1014.77 1014.72 1015.04 1015.64 1016.53 1017.44 1017.95 1018.04 1018.53 1018.40 1018.45 1018.84 1019.17 1019.25 1019.24 1019.64 1019.78 1019.53 1019.73 1020.33 1020.67 1020.76 1020.99 1021.55 1021.71 1021.85 1021.73 1022.14 1022.48 1022.80 1023.03 1023.37 1023.69 1023.99 1024.28 1024.57 1024.97
1016.91 1017.49 1018.19 1019.32 1020.31 1020.10 1019.75 1018.27 1015.65 1014.69 1014.65 1014.75 1014.79 1014.98 1015.37 1016.29 1017.18 1017.84 1018.23 1018.47 1018.84 1018.92 1018.93 1018.97 1019.24 1019.29 1019.30 1019.39 1019.58 1019.51 1019.73 1020.08 1020.41 1020.64 1020.97 1021.22 1021.65 1021.92 1021.81 1021.99 1022.53 1022.78 1022.97 1023.20 1023.45 1023.88 1024.25 1024.53 1025.13
1016.74 1016.99 1017.25 1018.87 1020.57 1020.01 1018.85 1017.34 1015.41 1014.42 1014.46 1014.71 1014.93 1015.60 1016.06 1016.79 1017.47 1017.94 1018.37 1018.55 1018.90 1019.06 1019.31 1019.37 1019.47 1019.50 1019.61 1019.74 1019.68 1019.70 1019.73 1019.99 1020.51 1020.85 1021.18 1021.48 1021.87 1022.19 1022.53 1022.50 1023.01 1023.31 1023.34 1023.47 1023.85 1024.40 1024.94 1025.00 1025.61
1015.34 1016.34 1017.40 1017.99 1019.46 1019.49 1018.18 1017.31 1015.29 1014.47 1014.24 1014.11 1014.98 1015.44 1016.31 1017.26 1017.61 1018.10 1018.52 1018.75 1018.94 1019.21 1019.47 1019.58 1019.77 1019.64 1019.83 1019.96 1020.01 1020.01 1020.13 1020.16 1020.68 1021.26 1021.60 1022.10 1022.40 1022.45 1022.83 1023.31 1023.56 1024.20 1024.09 1024.23 1024.55 1025.06 1025.63 1025.88 1026.48
1015.83 1015.76 1016.31 1017.10 1018.12 1018.09 1017.87 1015.93 1014.01 1013.32 1013.27 1013.87 1014.66 1015.36 1016.12 1017.09 1017.65 1018.27 1018.65 1018.88 1018.99 1019.42 1019.70 1020.02 1020.07 1020.11 1020.27 1020.59 1020.55 1020.50 1020.67 1020.96 1021.05 1021.89 1021.74 1022.80 1023.11 1023.19 1023.58 1024.05 1024.42 1024.89 1025.02 1025.14 1025.48 1025.86 1026.21 1026.41 1026.95
1015.40 1015.24 1015.64 1016.70 1017.40 1017.60 1016.82 1014.23 1013.20 1013.12 1012.91 1013.36 1013.96 1014.97 1016.00 1017.10 1017.98 1018.44 1018.75 1019.06 1019.16 1019.69 1020.06 1020.39 1020.33 1020.39 1020.77 1021.03 1020.89 1021.04 1021.19 1021.42 1021.93 1022.53 1022.41 1023.05 1023.84 1024.39 1024.36 1024.60 1025.11 1025.59 1026.01 1026.05 1026.20 1026.47 1026.90 1027.20 1027.60
Wind_Speed
5 4 3 6 6 6 1 1 0 3 3 1 4 6 8 4 3 3 1 6 12 8 6 6 9 12 14 13 11 13 13 14 14 17 16 16 15 14 15 16 15 17 19 18 17 17 16 17 18
3 3 5 3 6 3 5 3 4 1 6 8 7 4 6 3 4 5 5 7 11 9 6 7 9 13 14 13 11 12 12 13 15 17 15 16 16 15 15 14 15 16 16 17 16 15 14 17 18
2 4 4 5 3 3 4 3 4 2 6 1 5 5 4 2 2 6 5 11 10 8 7 9 10 12 13 12 12 11 13 12 13 14 16 15 15 15 15 14 13 14 15 13 14 15 15 16 17
4 6 5 5 2 4 4 5 5 7 4 5 5 7 3 2 7 5 10 11 9 6 7 9 12 12 12 11 12 12 13 14 13 14 14 14 14 14 13 14 13 12 12 12 13 15 14 14 17
5 4 4 2 2 4 3 3 2 5 3 3 2 3 3 3 6 14 11 9 10 5 5 7 11 11 10 11 12 12 12 13 13 13 14 13 14 13 13 12 12 12 12 12 14 14 14 14 15
4 3 4 2 3 4 2 1 2 1 4 4 7 4 3 4 12 9 8 7 7 7 5 5 9 10 11 11 12 12 12 12 12 12 12 11 13 13 12 12 11 11 13 12 13 13 14 13 13
5 4 5 3 2 1 4 5 3 5 5 3 10 5 1 5 6 9 8 6 7 5 6 5 5 7 9 10 10 11 11 10 11 11 10 9 10 12 11 9 10 10 12 11 12 12 13 15 13
5 4 4 4 3 4 4 4 3 5 0 3 4 7 5 6 9 10 8 7 6 4 4 5 4 4 5 6 10 10 10 10 10 9 9 8 9 10 9 8 8 9 10 9 9 10 10 11 11
4 4 3 6 6 4 4 4 2 2 7 1 2 7 4 16 14 10 11 8 8 5 3 5 6 5 5 5 5 9 10 9 8 7 8 6 4 5 6 6 8 7 6 8 8 9 10 9 9
4 4 8 6 5 4 4 4 7 5 3 1 1 4 14 17 16 16 16 11 13 12 8 5 5 5 5 4 4 4 5 4 4 5 5 3 4 4 4 5 7 7 6 5 6 7 8 6 3
4 5 4 3 4 5 5 5 3 8 4 6 10 10 16 16 13 15 16 15 15 14 9 7 6 5 6 5 3 2 3 4 4 6 5 4 3 2 3 2 2 2 4 2 3 4 4 5 4
5 5 5 4 2 3 6 7 6 6 7 7 11 21 17 17 16 14 14 15 12 10 11 8 7 6 5 3 3 4 4 4 3 4 5 4 3 3 3 2 3 2 1 1 2 2 3 4 4
4 2 5 4 2 2 6 4 6 6 1 6 11 10 17 17 15 10 11 9 9 11 10 10 8 8 6 5 4 4 4 4 4 4 4 4 4 4 3 3 2 2 2 2 2 1 1 2 3
6 5 2 5 4 2 4 2 4 6 5 8 13 12 13 17 17 7 10 12 12 11 11 10 10 9 7 6 6 4 3 4 3 4 4 5 4 4 4 3 3 3 3 2 2 2 2 2 2
2 6 3 1 2 2 5 1 7 2 8 11 11 10 8 10 9 16 16 14 14 11 11 12 11 10 11 9 8 5 5 5 4 4 5 6 5 5 5 4 3 4 3 3 2 1 1 2 2
2 3 5 2 4 2 6 8 7 5 9 12 10 8 8 10 12 10 9 12 13 12 12 11 10 10 10 9 8 6 6 5 5 4 5 8 8 7 5 4 4 4 3 3 2 2 2 2 2
4 4 3 4 3 2 4 7 5 7 6 9 10 11 11 10 8 10 9 10 11 13 13 12 11 12 12 9 7 6 8 6 5 5 4 6 6 6 5 4 4 4 3 3 2 2 2 2 2
8 4 3 6 3 2 5 8 5 4 8 11 8 10 9 11 17 14 11 9 9 12 13 13 12 12 11 6 4 3 4 5 4 4 5 6 5 6 5 4 4 4 3 3 2 4 3 3 2
7 8 4 5 6 3 7 7 11 4 4 6 8 8 9 12 12 7 9 10 8 8 10 13 13 12 9 5 5 3 3 3 4 4 6 6 5 6 6 4 4 5 5 6 5 4 5 2 0
3 5 7 2 2 4 1 10 10 3 7 10 10 8 12 6 8 9 9 8 10 12 13 12 13 12 11 8 6 4 4 3 3 5 6 7 7 7 6 6 5 6 4 4 4 3 1 1 3
4 5 4 3 2 3 2 7 7 6 6 4 7 9 6 11 11 9 8 9 7 9 11 12 13 13 12 12 4 3 3 2 3 3 4 6 8 8 8 8 6 6 6 6 5 5 6 3 3
10 6 4 4 4 4 3 10 7 7 9 7 13 9 13 11 7 6 7 7 7 6 5 6 6 7 8 9 9 11 8 7 4 4 3 5 9 9 8 8 8 7 5 6 7 5 5 4 4
6 5 6 3 3 2 2 1 8 1 7 9 15 15 17 10 10 10 9 7 5 6 5 5 5 5 5 9 10 8 5 4 3 3 5 6 4 6 7 6 6 6 5 5 5 4 5 4 3
7 5 4 4 3 3 8 8 6 7 9 7 7 12 12 10 8 7 6 7 5 4 5 3 5 4 5 6 9 12 11 8 5 4 4 3 4 3 4 5 5 4 4 5 4 5 5 5 4
8 11 2 1 2 8 1 4 12 6 8 7 8 10 8 8 8 8 9 8 6 7 6 5 5 5 5 7 7 10 10 9 8 7 5 5 3 3 4 4 4 3 3 4 3 4 4 4 2
8 8 7 9 5 2 2 8 9 8 3 7 7 3 4 6 5 7 6 5 4 4 4 5 5 4 5 6 8 6 7 5 4 4 2 3 2 2 2 3 3 2 2 2 3 2 2 3 2
5 10 4 7 2 3 5 7 10 6 9 7 7 5 8 8 8 8 7 6 5 4 3 4 4 3 3 2 3 5 6 6 5 6 5 5 4 4 5 7 7 5 6 6 6 5 3 5 4
9 10 4 2 5 3 3 5 6 5 12 9 8 9 7 6 7 7 6 7 4 4 3 4 4 5 3 3 3 4 5 6 7 6 7 7 5 6 7 7 8 5 7 7 7 6 5 6 4
3 4 2 5 5 6 2 7 10 15 7 9 9 9 9 8 7 7 6 5 6 4 4 4 4 5 5 4 4 6 6 6 7 6 9 7 6 7 7 7 7 6 7 7 7 6 6 7 6
1 7 10 7 8 1 4 10 2 7 5 7 7 7 6 6 7 6 6 6 6 5 4 5 5 6 5 4 5 6 7 7 7 6 9 8 8 6 7 8 8 7 7 6 7 7 6 6 6
Wind_Direction
341 349 81 41 50 61 14 263 313 137 70 349 102 131 131 75 113 201 52 147 130 132 128 115 114 119 112 107 100 94 99 91 94 89 86 87 81 82 79 75 83 85 88 83 83 76 78 82 89
337 5 50 81 80 51 287 273 154 241 139 145 96 84 54 90 108 140 121 155 131 128 125 115 120 122 120 116 108 97 96 92 86 89 92 90 88 89 92 72 72 82 88 88 86 75 80 93 90
97 30 75 88 100 154 218 233 167 100 157 236 92 62 115 137 69 165 143 138 130 127 134 133 125 131 127 125 115 108 102 97 94 92 93 86 84 88 90 89 69 68 70 90 89 80 85 91 96
47 13 41 81 190 250 207 191 187 140 170 53 117 65 50 255 140 157 140 133 126 129 137 141 129 137 131 129 124 117 111 109 103 101 95 93 90 87 87 87 95 90 89 94 99 84 80 88 96
35 49 61 44 283 270 246 180 221 121 100 76 74 160 64 38 99 133 138 134 135 130 139 139 133 133 133 127 129 123 118 114 110 108 107 106 104 96 93 92 92 90 93 97 94 83 78 85 93
46 91 72 230 259 298 103 192 172 113 133 149 82 104 124 120 132 141 140 136 133 142 139 138 138 133 132 121 138 128 121 119 116 115 113 111 121 111 103 100 95 95 96 102 94 82 77 84 88
108 89 192 177 248 304 178 142 172 162 138 165 146 101 104 141 153 135 123 114 121 132 134 134 144 135 130 128 128 129 127 126 124 120 116 99 85 110 103 96 101 100 95 97 94 81 75 78 86
110 98 130 197 198 248 174 160 156 146 44 83 146 161 187 181 139 117 108 116 111 125 139 139 131 135 134 139 136 138 137 130 122 116 109 99 91 103 100 93 100 98 100 94 89 87 78 73 70
129 82 195 204 156 240 164 147 180 83 124 347 116 151 183 132 130 129 134 140 149 157 175 151 150 153 141 133 140 138 139 133 126 121 117 104 109 105 101 105 103 107 92 97 80 75 63 56 42
124 144 210 192 194 216 196 163 171 127 137 62 73 46 126 136 149 156 164 168 176 180 191 174 159 159 148 137 145 132 142 140 138 131 131 120 125 130 124 119 112 105 92 75 70 61 43 45 42
171 186 185 241 221 205 191 172 184 132 235 207 183 149 146 152 166 165 173 180 182 183 185 187 168 167 161 150 149 144 153 168 154 152 150 144 122 116 109 107 92 86 75 49 47 27 26 30 24
124 237 193 200 202 135 187 139 177 183 218 184 175 162 152 166 173 176 176 181 177 178 187 193 169 171 177 151 162 158 167 182 175 175 165 153 155 155 150 148 151 137 110 105 45 19 359 9 13
155 260 197 260 116 186 150 197 185 216 132 119 125 162 168 172 179 184 180 177 178 179 186 190 177 178 178 168 168 170 182 184 190 177 181 157 171 173 165 177 178 185 168 170 180 285 329 340 335
192 184 245 274 125 123 185 176 139 229 130 134 149 179 181 185 180 155 172 183 186 187 186 184 189 180 174 179 176 181 176 189 197 193 193 181 179 177 181 184 195 201 199 202 201 220 257 285 313
110 168 314 211 260 183 131 314 233 214 149 161 174 184 196 202 174 189 189 189 186 193 187 184 189 184 181 188 184 178 183 184 193 208 196 191 187 196 187 193 202 213 209 206 189 258 289 299 310
177 92 191 288 172 107 122 244 248 191 153 175 188 187 203 216 210 201 186 194 189 184 187 188 190 186 189 189 186 187 185 182 197 202 201 199 190 188 190 195 216 209 189 184 185 200 251 274 274
315 199 158 314 221 126 158 236 245 177 198 197 195 200 204 222 230 222 205 192 187 188 186 189 191 189 191 194 186 183 177 179 192 189 193 197 190 185 193 187 212 195 196 196 190 218 198 240 273
212 240 198 183 209 279 186 244 279 197 182 214 211 210 209 216 224 217 206 201 190 192 191 189 190 195 191 189 187 192 181 174 184 184 192 194 192 183 190 196 193 180 174 202 209 215 226 245 252
183 199 210 198 147 214 218 239 241 191 206 236 228 232 234 225 241 226 213 207 194 193 187 191 186 194 180 172 190 195 210 190 193 195 194 186 193 196 189 194 192 180 189 205 200 193 221 260 177
244 195 199 340 84 147 110 261 267 229 227 210 211 231 232 232 244 237 218 202 195 196 193 192 195 186 191 191 195 174 163 201 197 189 196 198 195 196 193 188 198 190 202 215 204 176 195 246 173
211 202 176 153 143 109 85 277 253 241 242 224 233 224 232 229 236 242 219 209 193 203 191 189 192 189 190 190 151 104 105 108 170 194 191 197 200 205 202 203 199 193 185 210 200 186 193 214 203
225 199 170 139 126 199 139 255 256 235 239 225 237 230 232 225 227 247 213 203 197 196 164 180 175 179 189 170 183 196 198 193 198 193 192 205 199 204 205 208 200 201 200 211 209 191 189 161 220
202 176 187 172 141 109 168 262 266 320 248 242 242 232 231 216 198 223 207 186 179 151 155 152 154 185 187 183 189 192 192 185 174 179 201 216 200 199 197 203 201 199 196 213 202 185 193 187 191
155 78 42 64 94 265 197 178 246 201 207 240 243 236 215 196 191 194 171 144 147 137 132 164 163 194 199 202 191 192 196 183 183 180 199 214 213 207 204 199 198 182 188 195 204 207 198 196 206
170 142 171 249 184 224 73 155 242 257 242 227 252 259 218 175 167 172 171 165 171 159 147 152 177 208 210 210 217 198 187 190 192 192 183 197 197 207 213 181 182 181 188 205 210 207 204 179 184
192 158 167 188 190 190 87 226 250 232 273 255 271 273 147 154 164 167 164 157 153 148 138 134 156 184 199 209 217 203 180 191 188 177 167 152 118 91 94 133 134 139 149 170 145 110 106 109 106
186 193 160 101 12 80 204 287 297 248 265 257 241 187 190 180 177 167 156 153 148 139 151 157 145 139 162 179 177 189 180 159 148 114 104 92 93 86 73 80 76 69 79 81 85 81 49 84 56
179 160 176 18 132 234 282 277 238 267 236 220 217 204 192 184 170 166 167 161 150 147 139 134 155 143 132 115 103 102 107 107 107 115 108 92 85 87 86 82 82 55 68 67 74 70 50 76 53
136 186 109 123 153 179 190 254 218 227 214 216 216 205 189 182 175 173 171 164 146 135 140 141 131 128 115 115 107 98 86 84 88 99 102 88 83 86 86 84 82 76 74 67 80 77 69 74 68
332 182 178 177 222 244 145 253 238 236 226 214 206 191 178 169 183 174 167 159 150 158 149 150 134 120 117 118 102 96 98 97 96 105 88 92 85 69 93 94 89 79 71 69 76 76 64 71 59